Time,TemperatureF,DewpointF,PressureIn,WindDirection,WindDirectionDegrees,WindSpeedMPH,WindSpeedGustMPH,Humidity,HourlyPrecipIn,Conditions,Clouds,dailyrainin,SolarRadiationWatts/m^2,SoftwareType,DateUTC
2013-07-29 00:02:00,72.4,65.5,29.97,East,90,0.0,0.0,79,0.00,,BKN047,0.00,0.00,VWS V14.01,2013-07-29 05:02:00,
2013-07-29 00:07:00,72.4,65.5,29.97,East,90,0.0,0.0,79,0.00,,BKN047,0.00,0.00,VWS V14.01,2013-07-29 05:07:00,
2013-07-29 00:12:00,72.2,65.3,29.97,East,90,0.0,0.0,79,0.00,,BKN047,0.00,0.00,VWS V14.01,2013-07-29 05:12:00,
2013-07-29 00:17:00,72.2,65.3,29.97,East,90,0.0,0.0,79,0.00,,BKN047,0.00,0.00,VWS V14.01,2013-07-29 05:17:00,
2013-07-29 00:22:00,72.0,65.5,29.97,East,90,0.0,0.0,80,0.00,,BKN047,0.00,0.00,VWS V14.01,2013-07-29 05:22:00,
2013-07-29 00:27:00,72.0,65.5,29.97,East,90,0.0,0.0,80,0.00,,BKN047,0.00,0.00,VWS V14.01,2013-07-29 05:27:00,
2013-07-29 00:32:00,72.0,65.5,29.98,East,90,0.0,0.0,80,0.00,,BKN047,0.00,0.00,VWS V14.01,2013-07-29 05:32:00,
2013-07-29 00:37:00,71.8,65.7,29.98,East,90,0.0,0.0,81,0.00,,BKN047,0.00,0.00,VWS V14.01,2013-07-29 05:37:00,
2013-07-29 00:42:00,71.8,65.7,29.98,East,90,0.0,0.0,81,0.00,,BKN047,0.00,0.00,VWS V14.01,2013-07-29 05:42:00,
2013-07-29 00:47:00,71.7,65.6,29.97,East,90,0.0,0.0,81,0.00,,BKN047,0.00,0.00,VWS V14.01,2013-07-29 05:47:00,
2013-07-29 00:52:00,71.7,65.6,29.97,East,90,0.0,0.0,81,0.00,,BKN047,0.00,0.00,VWS V14.01,2013-07-29 05:52:00,
2013-07-29 00:57:00,71.5,65.4,29.97,East,90,0.0,0.0,81,0.00,,BKN047,0.00,0.00,VWS V14.01,2013-07-29 05:57:00,
2013-07-29 01:02:00,71.5,65.4,29.97,East,90,0.0,0.0,81,0.00,,BKN055,0.00,0.00,VWS V14.01,2013-07-29 06:02:00,
2013-07-29 01:07:00,71.5,65.4,29.97,East,90,0.0,0.0,81,0.00,,BKN055,0.00,0.00,VWS V14.01,2013-07-29 06:07:00,
2013-07-29 01:12:00,71.3,65.5,29.97,East,90,0.0,0.0,82,0.00,,BKN055,0.00,0.00,VWS V14.01,2013-07-29 06:12:00,
2013-07-29 01:17:00,71.3,65.5,29.98,East,90,0.0,0.0,82,0.00,,BKN055,0.00,0.00,VWS V14.01,2013-07-29 06:17:00,
2013-07-29 01:22:00,71.3,65.5,29.98,East,90,0.0,0.0,82,0.00,,BKN055,0.00,0.00,VWS V14.01,2013-07-29 06:22:00,
2013-07-29 01:27:00,71.3,65.5,29.98,East,90,0.0,0.0,82,0.00,,BKN055,0.00,0.00,VWS V14.01,2013-07-29 06:27:00,
2013-07-29 01:32:00,71.2,65.4,29.98,East,90,0.0,0.0,82,0.00,,BKN055,0.00,0.00,VWS V14.01,2013-07-29 06:32:00,
2013-07-29 01:37:00,71.2,65.4,29.98,East,90,0.0,0.0,82,0.00,,BKN055,0.00,0.00,VWS V14.01,2013-07-29 06:37:00,
2013-07-29 01:42:00,71.2,65.4,29.98,East,90,0.0,0.0,82,0.00,,BKN055,0.00,0.00,VWS V14.01,2013-07-29 06:42:00,
2013-07-29 01:47:00,71.2,65.4,29.98,East,90,0.0,0.0,82,0.00,,BKN055,0.00,0.00,VWS V14.01,2013-07-29 06:47:00,
2013-07-29 01:52:00,71.2,65.8,29.98,East,90,0.0,0.0,83,0.00,,BKN055,0.00,0.00,VWS V14.01,2013-07-29 06:52:00,
2013-07-29 01:57:00,71.0,65.6,29.98,East,90,0.0,0.0,83,0.00,,BKN055,0.00,0.00,VWS V14.01,2013-07-29 06:57:00,
2013-07-29 02:02:00,71.0,65.6,29.97,East,90,0.0,0.0,83,0.00,,FEW055,0.00,0.00,VWS V14.01,2013-07-29 07:02:00,
2013-07-29 02:07:00,71.0,65.6,29.97,East,90,0.0,0.0,83,0.00,,FEW055,0.00,0.00,VWS V14.01,2013-07-29 07:07:00,
2013-07-29 02:12:00,71.0,65.6,29.97,East,92,0.0,0.0,83,0.00,,FEW055,0.00,0.00,VWS V14.01,2013-07-29 07:12:00,
2013-07-29 02:17:00,71.0,65.9,29.97,East,96,0.0,0.0,84,0.00,,FEW055,0.00,0.00,VWS V14.01,2013-07-29 07:17:00,
2013-07-29 02:22:00,71.0,65.9,29.97,East,101,0.0,0.0,84,0.00,,FEW055,0.00,0.00,VWS V14.01,2013-07-29 07:22:00,
2013-07-29 02:27:00,71.0,65.9,29.97,ESE,105,0.0,0.0,84,0.00,,FEW055,0.00,0.00,VWS V14.01,2013-07-29 07:27:00,
2013-07-29 02:32:00,71.2,66.1,29.97,ESE,105,0.0,0.0,84,0.00,,FEW055,0.00,0.00,VWS V14.01,2013-07-29 07:32:00,
2013-07-29 02:37:00,71.2,66.1,29.97,ESE,119,0.0,0.0,84,0.00,,FEW055,0.00,0.00,VWS V14.01,2013-07-29 07:37:00,
2013-07-29 02:42:00,71.2,66.1,29.97,ESE,120,0.0,0.0,84,0.00,,FEW055,0.00,0.00,VWS V14.01,2013-07-29 07:42:00,
2013-07-29 02:47:00,71.2,66.1,29.97,ESE,121,0.0,0.0,84,0.00,,FEW055,0.00,0.00,VWS V14.01,2013-07-29 07:47:00,
2013-07-29 02:52:00,71.2,66.1,29.97,SE,134,2.0,3.0,84,0.00,,FEW055,0.00,0.00,VWS V14.01,2013-07-29 07:52:00,
2013-07-29 02:57:00,71.2,66.1,29.97,SE,134,1.0,5.0,84,0.00,,FEW055,0.00,0.00,VWS V14.01,2013-07-29 07:57:00,
2013-07-29 03:02:00,71.2,66.1,29.96,SE,134,0.0,0.0,84,0.00,,CLR,0.00,0.00,VWS V14.01,2013-07-29 08:02:00,
2013-07-29 03:07:00,71.2,66.1,29.96,SE,134,0.0,4.0,84,0.00,,CLR,0.00,0.00,VWS V14.01,2013-07-29 08:07:00,
2013-07-29 03:12:00,71.3,66.2,29.96,SE,142,0.0,6.0,84,0.00,,CLR,0.00,0.00,VWS V14.01,2013-07-29 08:12:00,
2013-07-29 03:17:00,71.3,66.2,29.96,SE,142,0.0,0.0,84,0.00,,CLR,0.00,0.00,VWS V14.01,2013-07-29 08:17:00,
2013-07-29 03:22:00,71.3,66.2,29.96,SE,141,4.0,4.0,84,0.00,,CLR,0.00,0.00,VWS V14.01,2013-07-29 08:22:00,
2013-07-29 03:27:00,71.3,66.2,29.96,SE,140,0.0,4.0,84,0.00,,CLR,0.00,0.00,VWS V14.01,2013-07-29 08:27:00,
2013-07-29 03:32:00,71.5,66.4,29.96,SSE,150,0.0,9.0,84,0.00,,CLR,0.00,0.00,VWS V14.01,2013-07-29 08:32:00,
2013-07-29 03:37:00,71.5,66.4,29.96,SSE,150,3.0,3.0,84,0.00,,CLR,0.00,0.00,VWS V14.01,2013-07-29 08:37:00,
2013-07-29 03:42:00,71.5,66.4,29.96,SSE,149,0.0,0.0,84,0.00,,CLR,0.00,0.00,VWS V14.01,2013-07-29 08:42:00,
2013-07-29 03:47:00,71.5,66.4,29.96,SE,142,0.0,0.0,84,0.00,,CLR,0.00,0.00,VWS V14.01,2013-07-29 08:47:00,
2013-07-29 03:52:00,71.5,66.4,29.96,SE,143,0.0,0.0,84,0.00,,CLR,0.00,0.00,VWS V14.01,2013-07-29 08:52:00,
2013-07-29 03:57:00,71.7,66.6,29.96,SE,143,0.0,0.0,84,0.00,,CLR,0.00,0.00,VWS V14.01,2013-07-29 08:57:00,
2013-07-29 04:02:00,71.7,66.6,29.97,SE,143,0.0,1.0,84,0.00,,FEW065,0.00,0.00,VWS V14.01,2013-07-29 09:02:00,
2013-07-29 04:07:00,71.7,66.6,29.97,SE,143,0.0,0.0,84,0.00,,FEW065,0.00,0.00,VWS V14.01,2013-07-29 09:07:00,
2013-07-29 04:12:00,71.7,66.6,29.97,SE,142,0.0,0.0,84,0.00,,FEW065,0.00,0.00,VWS V14.01,2013-07-29 09:12:00,
2013-07-29 04:17:00,71.7,66.6,29.97,SE,141,0.0,0.0,84,0.00,,FEW065,0.00,0.00,VWS V14.01,2013-07-29 09:17:00,
2013-07-29 04:22:00,71.7,66.6,29.97,SE,140,0.0,0.0,84,0.00,,FEW065,0.00,0.00,VWS V14.01,2013-07-29 09:22:00,
2013-07-29 04:27:00,71.7,66.6,29.97,SE,144,0.0,0.0,84,0.00,,FEW065,0.00,0.00,VWS V14.01,2013-07-29 09:27:00,
2013-07-29 04:32:00,71.8,66.7,29.97,SE,144,0.0,0.0,84,0.00,,FEW065,0.00,0.00,VWS V14.01,2013-07-29 09:32:00,
2013-07-29 04:37:00,71.8,66.7,29.97,SE,144,0.0,0.0,84,0.00,,FEW065,0.00,0.00,VWS V14.01,2013-07-29 09:37:00,
2013-07-29 04:42:00,71.8,66.7,29.97,SE,144,0.0,0.0,84,0.00,,FEW065,0.00,0.00,VWS V14.01,2013-07-29 09:42:00,
2013-07-29 04:47:00,71.8,66.7,29.97,SE,144,0.0,0.0,84,0.00,,FEW065,0.00,0.00,VWS V14.01,2013-07-29 09:47:00,
2013-07-29 04:52:00,71.8,66.7,29.97,SE,144,0.0,0.0,84,0.00,,FEW065,0.00,0.00,VWS V14.01,2013-07-29 09:52:00,
2013-07-29 04:57:00,71.8,67.1,29.97,SE,143,0.0,0.0,85,0.00,,FEW065,0.00,0.00,VWS V14.01,2013-07-29 09:57:00,
2013-07-29 05:02:00,71.8,67.1,29.97,SE,143,0.0,0.0,85,0.00,,BKN065,0.00,0.00,VWS V14.01,2013-07-29 10:02:00,
2013-07-29 05:07:00,71.8,67.1,29.97,SE,143,0.0,0.0,85,0.00,,BKN065,0.00,0.00,VWS V14.01,2013-07-29 10:07:00,
2013-07-29 05:12:00,71.8,67.1,29.97,SE,143,0.0,0.0,85,0.00,,BKN065,0.00,0.00,VWS V14.01,2013-07-29 10:12:00,
2013-07-29 05:17:00,71.8,67.1,29.97,SE,143,0.0,0.0,85,0.00,,BKN065,0.00,0.00,VWS V14.01,2013-07-29 10:17:00,
2013-07-29 05:22:00,71.7,66.9,29.97,SE,143,0.0,0.0,85,0.00,,BKN065,0.00,0.00,VWS V14.01,2013-07-29 10:22:00,
2013-07-29 05:27:00,71.7,66.9,29.97,SE,143,0.0,0.0,85,0.00,,BKN065,0.00,0.00,VWS V14.01,2013-07-29 10:27:00,
2013-07-29 05:32:00,71.7,66.9,29.97,SE,143,0.0,2.0,85,0.00,,BKN065,0.00,0.00,VWS V14.01,2013-07-29 10:32:00,
2013-07-29 05:37:00,71.7,66.9,29.97,SE,142,0.0,0.0,85,0.00,,BKN065,0.00,0.00,VWS V14.01,2013-07-29 10:37:00,
2013-07-29 05:42:00,71.7,66.9,29.97,SE,142,0.0,0.0,85,0.00,,BKN065,0.00,0.00,VWS V14.01,2013-07-29 10:42:00,
2013-07-29 05:47:00,71.7,66.9,29.96,SE,142,0.0,0.0,85,0.00,,BKN065,0.00,0.00,VWS V14.01,2013-07-29 10:47:00,
2013-07-29 05:53:00,71.7,67.3,29.96,SSE,163,0.0,0.0,86,0.00,,BKN065,0.00,0.00,VWS V14.01,2013-07-29 10:53:00,
2013-07-29 05:58:00,71.7,67.3,29.96,SSE,161,0.0,0.0,86,0.00,,BKN065,0.00,0.00,VWS V14.01,2013-07-29 10:58:00,
2013-07-29 06:03:00,71.7,67.3,29.97,SSE,161,0.0,2.0,86,0.00,,BKN080,0.00,0.00,VWS V14.01,2013-07-29 11:03:00,
2013-07-29 06:08:00,71.7,67.3,29.97,SSE,161,0.0,0.0,86,0.00,,BKN080,0.00,0.00,VWS V14.01,2013-07-29 11:08:00,
2013-07-29 06:13:00,71.7,67.3,29.97,SSE,160,0.0,0.0,86,0.00,,BKN080,0.00,0.00,VWS V14.01,2013-07-29 11:13:00,
2013-07-29 06:18:00,71.7,67.3,29.97,SSE,159,0.0,6.0,86,0.00,,BKN080,0.00,0.00,VWS V14.01,2013-07-29 11:18:00,
2013-07-29 06:23:00,71.7,67.3,29.97,SSE,158,0.0,2.0,86,0.00,,BKN080,0.00,0.00,VWS V14.01,2013-07-29 11:23:00,
2013-07-29 06:28:00,71.7,67.3,29.97,SSE,157,0.0,6.0,86,0.00,,BKN080,0.00,0.00,VWS V14.01,2013-07-29 11:28:00,
2013-07-29 06:33:00,71.8,67.4,29.97,SSE,157,2.0,5.0,86,0.00,,BKN080,0.00,0.00,VWS V14.01,2013-07-29 11:33:00,
2013-07-29 06:38:00,71.8,67.4,29.97,SSE,156,0.0,1.0,86,0.00,,BKN080,0.00,5.75,VWS V14.01,2013-07-29 11:38:00,
2013-07-29 06:43:00,71.8,67.4,29.97,SSE,155,0.0,6.0,86,0.00,,BKN080,0.00,8.05,VWS V14.01,2013-07-29 11:43:00,
2013-07-29 06:48:00,71.8,67.4,29.97,SSE,155,0.0,0.0,86,0.00,,BKN080,0.00,13.80,VWS V14.01,2013-07-29 11:48:00,
2013-07-29 06:53:00,71.8,67.4,29.97,SSE,161,1.0,5.0,86,0.00,,BKN080,0.00,21.85,VWS V14.01,2013-07-29 11:53:00,
2013-07-29 06:58:00,71.8,67.4,29.97,SSE,161,0.0,7.0,86,0.00,,BKN080,0.00,34.50,VWS V14.01,2013-07-29 11:58:00,
2013-07-29 07:04:00,72.0,67.6,29.98,SSE,161,0.0,0.0,86,0.00,,BKN080,0.00,46.00,VWS V14.01,2013-07-29 12:04:00,
2013-07-29 07:09:00,72.0,67.6,29.98,SSE,161,0.0,5.0,86,0.00,,BKN080,0.00,54.05,VWS V14.01,2013-07-29 12:09:00,
2013-07-29 07:14:00,72.0,67.6,29.98,SSE,165,0.0,6.0,86,0.00,,BKN080,0.00,64.40,VWS V14.01,2013-07-29 12:14:00,
2013-07-29 07:19:00,72.2,67.8,29.98,SSE,168,0.0,7.0,86,0.00,,BKN080,0.00,74.75,VWS V14.01,2013-07-29 12:19:00,
2013-07-29 07:24:00,72.4,68.0,29.98,SSE,161,0.0,7.0,86,0.00,,BKN080,0.00,104.65,VWS V14.01,2013-07-29 12:24:00,
2013-07-29 07:29:00,72.4,68.0,29.98,SSE,167,5.0,6.0,86,0.00,,BKN080,0.00,139.15,VWS V14.01,2013-07-29 12:29:00,
2013-07-29 07:34:00,72.9,68.1,29.98,South,171,1.0,9.0,85,0.00,,BKN080,0.00,125.35,VWS V14.01,2013-07-29 12:34:00,
2013-07-29 07:39:00,73.2,68.1,29.98,South,172,3.0,12.0,84,0.00,,BKN080,0.00,115.00,VWS V14.01,2013-07-29 12:39:00,
2013-07-29 07:44:00,73.6,68.1,29.98,South,173,0.0,9.0,83,0.00,,BKN080,0.00,109.25,VWS V14.01,2013-07-29 12:44:00,
2013-07-29 07:49:00,73.8,68.3,29.99,South,170,4.0,11.0,83,0.00,,BKN080,0.00,106.95,VWS V14.01,2013-07-29 12:49:00,
2013-07-29 07:54:00,73.9,68.1,29.99,South,177,5.0,10.0,82,0.00,,BKN080,0.00,101.20,VWS V14.01,2013-07-29 12:54:00,
2013-07-29 07:59:00,73.9,68.1,29.99,South,175,2.0,7.0,82,0.00,,BKN080,0.00,96.60,VWS V14.01,2013-07-29 12:59:00,
2013-07-29 08:04:00,74.1,68.3,29.99,South,171,0.0,9.0,82,0.00,,SCT065,0.00,96.60,VWS V14.01,2013-07-29 13:04:00,
2013-07-29 08:09:00,74.1,68.3,29.99,South,180,0.0,11.0,82,0.00,,SCT065,0.00,101.20,VWS V14.01,2013-07-29 13:09:00,
2013-07-29 08:15:00,74.1,68.3,29.99,South,171,13.0,13.0,82,0.00,,SCT065,0.00,117.30,VWS V14.01,2013-07-29 13:15:00,
2013-07-29 08:20:00,74.1,67.9,29.98,SSE,159,0.0,13.0,81,0.00,,SCT065,0.00,129.95,VWS V14.01,2013-07-29 13:20:00,
2013-07-29 08:25:00,74.3,68.1,29.98,SSE,158,0.0,12.0,81,0.00,,SCT065,0.00,138.00,VWS V14.01,2013-07-29 13:25:00,
2013-07-29 08:30:00,74.5,68.3,29.98,South,171,2.0,8.0,81,0.00,,SCT065,0.00,163.30,VWS V14.01,2013-07-29 13:30:00,
2013-07-29 08:35:00,74.6,68.4,29.98,SSE,162,7.0,9.0,81,0.00,,SCT065,0.00,200.10,VWS V14.01,2013-07-29 13:35:00,
2013-07-29 08:40:00,75.0,68.8,29.98,SE,138,4.0,11.0,81,0.00,,SCT065,0.00,192.05,VWS V14.01,2013-07-29 13:40:00,
2013-07-29 08:46:00,75.0,68.4,29.98,SSE,166,5.0,13.0,80,0.00,,SCT065,0.00,196.65,VWS V14.01,2013-07-29 13:46:00,
2013-07-29 08:51:00,75.2,68.6,29.98,South,190,0.0,13.0,80,0.00,,SCT065,0.00,189.75,VWS V14.01,2013-07-29 13:51:00,
2013-07-29 08:56:00,75.3,68.7,29.98,South,182,9.0,16.0,80,0.00,,SCT065,0.00,208.15,VWS V14.01,2013-07-29 13:56:00,
2013-07-29 09:01:00,75.5,68.5,29.98,SSE,153,9.0,15.0,79,0.00,,BKN075,0.00,212.75,VWS V14.01,2013-07-29 14:01:00,
2013-07-29 09:06:00,75.7,69.1,29.98,South,172,5.0,11.0,80,0.00,,BKN075,0.00,226.55,VWS V14.01,2013-07-29 14:06:00,
2013-07-29 09:11:00,75.9,68.9,29.98,South,175,3.0,9.0,79,0.00,,BKN075,0.00,221.95,VWS V14.01,2013-07-29 14:11:00,
2013-07-29 09:16:00,76.1,69.1,29.98,South,170,2.0,2.0,79,0.00,,BKN075,0.00,258.75,VWS V14.01,2013-07-29 14:16:00,
2013-07-29 09:21:00,76.6,69.6,29.98,SSE,154,7.0,10.0,79,0.00,,BKN075,0.00,359.95,VWS V14.01,2013-07-29 14:21:00,
2013-07-29 09:26:00,77.0,69.2,29.98,SSE,159,5.0,6.0,77,0.00,,BKN075,0.00,531.30,VWS V14.01,2013-07-29 14:26:00,
2013-07-29 09:31:00,78.1,70.3,29.98,SSE,156,6.0,9.0,77,0.00,,BKN075,0.00,626.75,VWS V14.01,2013-07-29 14:31:00,
2013-07-29 09:36:00,78.4,69.4,29.98,South,180,12.0,12.0,74,0.00,,BKN075,0.00,496.80,VWS V14.01,2013-07-29 14:36:00,
2013-07-29 09:41:00,79.2,70.2,29.98,SSE,165,10.0,10.0,74,0.00,,BKN075,0.00,546.25,VWS V14.01,2013-07-29 14:41:00,
2013-07-29 09:46:00,79.2,69.8,29.98,SSE,163,3.0,8.0,73,0.00,,BKN075,0.00,604.90,VWS V14.01,2013-07-29 14:46:00,
2013-07-29 09:52:00,79.6,70.6,29.98,South,175,5.0,7.0,74,0.00,,BKN075,0.00,466.90,VWS V14.01,2013-07-29 14:52:00,
2013-07-29 09:57:00,79.9,70.5,29.98,SSE,149,6.0,6.0,73,0.00,,BKN075,0.00,485.30,VWS V14.01,2013-07-29 14:57:00,
2013-07-29 10:02:00,80.3,70.9,29.98,SSE,166,2.0,12.0,73,0.00,,CLR,0.00,579.60,VWS V14.01,2013-07-29 15:02:00,
2013-07-29 10:07:00,80.9,71.4,29.98,SSE,164,10.0,12.0,73,0.00,,CLR,0.00,629.05,VWS V14.01,2013-07-29 15:07:00,
2013-07-29 10:12:00,81.3,71.0,29.98,South,171,7.0,10.0,71,0.00,,CLR,0.00,483.00,VWS V14.01,2013-07-29 15:12:00,
2013-07-29 10:17:00,81.7,71.0,29.98,ESE,121,0.0,4.0,70,0.00,,CLR,0.00,677.35,VWS V14.01,2013-07-29 15:17:00,
2013-07-29 10:22:00,82.3,71.5,29.98,SE,128,3.0,9.0,70,0.00,,CLR,0.00,749.80,VWS V14.01,2013-07-29 15:22:00,
2013-07-29 10:27:00,82.5,71.3,29.98,SSW,194,6.0,14.0,69,0.00,,CLR,0.00,741.75,VWS V14.01,2013-07-29 15:27:00,
2013-07-29 10:32:00,82.3,71.1,29.98,South,186,5.0,13.0,69,0.00,,CLR,0.00,730.25,VWS V14.01,2013-07-29 15:32:00,
2013-07-29 10:37:00,82.1,71.3,29.98,South,188,10.0,15.0,70,0.00,,CLR,0.00,739.45,VWS V14.01,2013-07-29 15:37:00,
2013-07-29 10:43:00,82.3,71.1,29.98,South,179,8.0,12.0,69,0.00,,CLR,0.00,765.90,VWS V14.01,2013-07-29 15:43:00,
2013-07-29 10:48:00,83.0,71.4,29.98,South,173,5.0,12.0,68,0.00,,CLR,0.00,768.20,VWS V14.01,2013-07-29 15:48:00,
2013-07-29 10:53:00,82.8,71.2,29.98,South,184,0.0,13.0,68,0.00,,CLR,0.00,792.35,VWS V14.01,2013-07-29 15:53:00,
2013-07-29 10:58:00,83.6,72.4,29.98,South,184,9.0,9.0,69,0.00,,CLR,0.00,848.70,VWS V14.01,2013-07-29 15:58:00,
2013-07-29 11:03:00,83.6,71.9,29.98,SSE,153,0.0,0.0,68,0.00,,CLR,0.00,871.70,VWS V14.01,2013-07-29 16:03:00,
2013-07-29 11:08:00,83.4,71.7,29.98,SE,138,0.0,0.0,68,0.00,,CLR,0.00,867.10,VWS V14.01,2013-07-29 16:08:00,
2013-07-29 11:13:00,83.4,71.7,29.98,SSE,162,6.0,11.0,68,0.00,,CLR,0.00,901.60,VWS V14.01,2013-07-29 16:13:00,
2013-07-29 11:18:00,84.0,71.4,29.98,South,173,7.0,13.0,66,0.00,,CLR,0.00,879.75,VWS V14.01,2013-07-29 16:18:00,
2013-07-29 11:23:00,84.0,72.3,29.98,South,169,0.0,13.0,68,0.00,,CLR,0.00,824.55,VWS V14.01,2013-07-29 16:23:00,
2013-07-29 11:28:00,84.0,72.3,29.98,SSE,157,1.0,9.0,68,0.00,,CLR,0.00,530.15,VWS V14.01,2013-07-29 16:28:00,
2013-07-29 11:33:00,83.6,72.4,29.98,SSE,158,0.0,8.0,69,0.00,,CLR,0.00,1039.60,VWS V14.01,2013-07-29 16:33:00,
2013-07-29 11:38:00,83.8,72.6,29.98,South,171,0.0,11.0,69,0.00,,CLR,0.00,917.70,VWS V14.01,2013-07-29 16:38:00,
2013-07-29 11:44:00,84.6,72.0,29.98,SE,143,0.0,7.0,66,0.00,,CLR,0.00,920.00,VWS V14.01,2013-07-29 16:44:00,
2013-07-29 11:49:00,84.8,72.6,29.98,South,175,0.0,12.0,67,0.00,,CLR,0.00,853.30,VWS V14.01,2013-07-29 16:49:00,
2013-07-29 11:54:00,84.6,73.3,29.98,SSE,157,0.0,10.0,69,0.00,,CLR,0.00,994.75,VWS V14.01,2013-07-29 16:54:00,
2013-07-29 11:59:00,85.5,72.4,29.98,SSW,203,7.0,16.0,65,0.00,,CLR,0.00,822.25,VWS V14.01,2013-07-29 16:59:00,
2013-07-29 12:04:00,84.8,72.2,29.97,SSE,152,0.0,15.0,66,0.00,,CLR,0.00,1000.50,VWS V14.01,2013-07-29 17:04:00,
2013-07-29 12:10:00,85.0,72.4,29.97,South,173,6.0,16.0,66,0.00,,CLR,0.00,939.55,VWS V14.01,2013-07-29 17:10:00,
2013-07-29 12:15:00,85.0,72.8,29.97,SSE,165,4.0,19.0,67,0.00,,CLR,0.00,947.60,VWS V14.01,2013-07-29 17:15:00,
2013-07-29 12:20:00,85.7,73.0,29.97,South,185,0.0,11.0,66,0.00,,CLR,0.00,1035.00,VWS V14.01,2013-07-29 17:20:00,
2013-07-29 12:25:00,85.9,72.8,29.97,SSE,163,5.0,11.0,65,0.00,,CLR,0.00,1051.10,VWS V14.01,2013-07-29 17:25:00,
2013-07-29 12:30:00,85.9,73.2,29.97,South,180,5.0,14.0,66,0.00,,CLR,0.00,1152.30,VWS V14.01,2013-07-29 17:30:00,
2013-07-29 12:35:00,85.7,72.6,29.97,SSE,151,0.0,16.0,65,0.00,,CLR,0.00,381.80,VWS V14.01,2013-07-29 17:35:00,
2013-07-29 12:40:00,85.5,72.8,29.97,South,171,0.0,15.0,66,0.00,,CLR,0.00,440.45,VWS V14.01,2013-07-29 17:40:00,
2013-07-29 12:45:00,85.9,72.8,29.96,South,171,7.0,13.0,65,0.00,,CLR,0.00,1000.50,VWS V14.01,2013-07-29 17:45:00,
2013-07-29 12:50:00,86.5,72.9,29.96,South,185,10.0,14.0,64,0.00,,CLR,0.00,1000.50,VWS V14.01,2013-07-29 17:50:00,
2013-07-29 12:55:00,86.9,73.3,29.96,South,173,6.0,11.0,64,0.00,,CLR,0.00,430.10,VWS V14.01,2013-07-29 17:55:00,
2013-07-29 13:00:00,87.1,72.5,29.96,South,187,10.0,19.0,62,0.00,,FEW027,0.00,1136.20,VWS V14.01,2013-07-29 18:00:00,
2013-07-29 13:05:00,87.1,72.5,29.96,SSE,165,4.0,16.0,62,0.00,,FEW027,0.00,1097.10,VWS V14.01,2013-07-29 18:05:00,
2013-07-29 13:10:00,86.5,72.9,29.96,SSE,152,0.0,21.0,64,0.00,,FEW027,0.00,895.85,VWS V14.01,2013-07-29 18:10:00,
2013-07-29 13:15:00,86.3,72.7,29.96,SSE,160,10.0,15.0,64,0.00,,FEW027,0.00,290.95,VWS V14.01,2013-07-29 18:15:00,
2013-07-29 13:20:00,85.7,72.6,29.96,SSW,211,6.0,15.0,65,0.00,,FEW027,0.00,570.40,VWS V14.01,2013-07-29 18:20:00,
2013-07-29 13:25:00,85.9,72.8,29.96,SE,144,4.0,16.0,65,0.00,,FEW027,0.00,1071.80,VWS V14.01,2013-07-29 18:25:00,
2013-07-29 13:31:00,86.7,73.1,29.96,South,171,0.0,17.0,64,0.00,,FEW027,0.00,1064.90,VWS V14.01,2013-07-29 18:31:00,
2013-07-29 13:36:00,87.1,73.4,29.96,SSW,200,4.0,10.0,64,0.00,,FEW027,0.00,997.05,VWS V14.01,2013-07-29 18:36:00,
2013-07-29 13:41:00,87.3,73.6,29.96,South,172,1.0,16.0,64,0.00,,FEW027,0.00,754.40,VWS V14.01,2013-07-29 18:41:00,
2013-07-29 13:46:00,87.1,73.4,29.95,East,101,6.0,6.0,64,0.00,,FEW027,0.00,333.50,VWS V14.01,2013-07-29 18:46:00,
2013-07-29 13:51:00,86.9,73.3,29.95,South,179,13.0,13.0,64,0.00,,FEW027,0.00,471.50,VWS V14.01,2013-07-29 18:51:00,
2013-07-29 13:56:00,86.9,73.3,29.95,SSE,165,14.0,18.0,64,0.00,,FEW027,0.00,319.70,VWS V14.01,2013-07-29 18:56:00,
2013-07-29 14:02:00,87.1,73.4,29.95,South,169,5.0,14.0,64,0.00,,SCT060,0.00,955.65,VWS V14.01,2013-07-29 19:02:00,
2013-07-29 14:07:00,86.9,73.3,29.95,SSE,152,4.0,12.0,64,0.00,,SCT060,0.00,234.60,VWS V14.01,2013-07-29 19:07:00,
2013-07-29 14:12:00,86.9,73.3,29.95,SW,215,9.0,13.0,64,0.00,,SCT060,0.00,1079.85,VWS V14.01,2013-07-29 19:12:00,
2013-07-29 14:17:00,88.2,73.6,29.94,SSE,159,0.0,14.0,62,0.00,,SCT060,0.00,1061.45,VWS V14.01,2013-07-29 19:17:00,
2013-07-29 14:22:00,88.4,73.7,29.94,South,187,7.0,10.0,62,0.00,,SCT060,0.00,1043.05,VWS V14.01,2013-07-29 19:22:00,
2013-07-29 14:27:00,88.4,73.7,29.94,SSE,163,11.0,17.0,62,0.00,,SCT060,0.00,1045.35,VWS V14.01,2013-07-29 19:27:00,
2013-07-29 14:32:00,88.2,73.6,29.93,SSE,167,0.0,13.0,62,0.00,,SCT060,0.00,1005.10,VWS V14.01,2013-07-29 19:32:00,
2013-07-29 14:37:00,88.4,73.7,29.93,SSE,159,5.0,14.0,62,0.00,,SCT060,0.00,1029.25,VWS V14.01,2013-07-29 19:37:00,
2013-07-29 14:42:00,88.4,73.7,29.93,SSE,153,7.0,14.0,62,0.00,,SCT060,0.00,1048.80,VWS V14.01,2013-07-29 19:42:00,
2013-07-29 14:47:00,88.2,73.1,29.93,SSE,163,0.0,12.0,61,0.00,,SCT060,0.00,315.10,VWS V14.01,2013-07-29 19:47:00,
2013-07-29 14:52:00,87.8,74.1,29.93,SSE,159,11.0,14.0,64,0.00,,SCT060,0.00,962.55,VWS V14.01,2013-07-29 19:52:00,
2013-07-29 14:57:00,87.5,73.4,29.93,SSE,160,7.0,14.0,63,0.00,,SCT060,0.00,359.95,VWS V14.01,2013-07-29 19:57:00,
2013-07-29 15:02:00,88.0,73.4,29.93,South,174,6.0,17.0,62,0.00,,SCT033,0.00,893.55,VWS V14.01,2013-07-29 20:02:00,
2013-07-29 15:07:00,87.8,73.2,29.93,South,176,10.0,13.0,62,0.00,,SCT033,0.00,976.35,VWS V14.01,2013-07-29 20:07:00,
2013-07-29 15:12:00,88.0,73.4,29.93,South,172,2.0,13.0,62,0.00,,SCT033,0.00,925.75,VWS V14.01,2013-07-29 20:12:00,
2013-07-29 15:17:00,88.4,73.2,29.92,South,190,18.0,18.0,61,0.00,,SCT033,0.00,359.95,VWS V14.01,2013-07-29 20:17:00,
2013-07-29 15:23:00,87.8,73.2,29.92,South,169,4.0,16.0,62,0.00,,SCT033,0.00,464.60,VWS V14.01,2013-07-29 20:23:00,
2013-07-29 15:28:00,88.4,73.2,29.92,SSE,165,10.0,11.0,61,0.00,,SCT033,0.00,464.60,VWS V14.01,2013-07-29 20:28:00,
2013-07-29 15:33:00,88.0,72.9,29.92,SSE,148,7.0,17.0,61,0.00,,SCT033,0.00,464.60,VWS V14.01,2013-07-29 20:33:00,
2013-07-29 15:38:00,87.8,73.2,29.92,South,188,6.0,13.0,62,0.00,,SCT033,0.00,422.05,VWS V14.01,2013-07-29 20:38:00,
2013-07-29 15:43:00,87.5,72.9,29.92,South,189,5.0,14.0,62,0.00,,SCT033,0.00,351.90,VWS V14.01,2013-07-29 20:43:00,
2013-07-29 15:48:00,87.3,73.2,29.92,South,184,7.0,16.0,63,0.00,,SCT033,0.00,392.15,VWS V14.01,2013-07-29 20:48:00,
2013-07-29 15:54:00,86.9,72.8,29.92,SSE,159,9.0,17.0,63,0.00,,SCT033,0.00,311.65,VWS V14.01,2013-07-29 20:54:00,
2013-07-29 15:59:00,86.7,73.1,29.92,SSW,206,0.0,10.0,64,0.00,,SCT033,0.00,392.15,VWS V14.01,2013-07-29 20:59:00,
2013-07-29 16:04:00,86.9,73.3,29.92,SSE,165,7.0,12.0,64,0.00,,OVC055,0.00,261.05,VWS V14.01,2013-07-29 21:04:00,
2013-07-29 16:09:00,87.1,73.4,29.92,SSE,163,11.0,14.0,64,0.00,,OVC055,0.00,189.75,VWS V14.01,2013-07-29 21:09:00,
2013-07-29 16:14:00,86.5,72.9,29.92,SSE,154,5.0,11.0,64,0.00,,OVC055,0.00,236.90,VWS V14.01,2013-07-29 21:14:00,
2013-07-29 16:19:00,86.1,73.0,29.92,South,179,9.0,19.0,65,0.00,,OVC055,0.00,242.65,VWS V14.01,2013-07-29 21:19:00,
2013-07-29 16:24:00,85.9,73.2,29.92,SSW,200,0.0,5.0,66,0.00,,OVC055,0.00,192.05,VWS V14.01,2013-07-29 21:24:00,
2013-07-29 16:29:00,85.7,72.6,29.92,South,177,0.0,15.0,65,0.00,,OVC055,0.00,208.15,VWS V14.01,2013-07-29 21:29:00,
2013-07-29 16:34:00,85.9,72.3,29.92,SSE,166,0.0,15.0,64,0.00,,OVC055,0.00,339.25,VWS V14.01,2013-07-29 21:34:00,
2013-07-29 16:39:00,86.1,72.5,29.92,SE,138,5.0,11.0,64,0.00,,OVC055,0.00,325.45,VWS V14.01,2013-07-29 21:39:00,
2013-07-29 16:44:00,86.1,72.5,29.92,South,178,7.0,15.0,64,0.00,,OVC055,0.00,311.65,VWS V14.01,2013-07-29 21:44:00,
2013-07-29 16:49:00,86.1,72.5,29.91,South,185,4.0,12.0,64,0.00,,OVC055,0.00,293.25,VWS V14.01,2013-07-29 21:49:00,
2013-07-29 16:54:00,86.3,72.7,29.91,South,171,7.0,15.0,64,0.00,,OVC055,0.00,274.85,VWS V14.01,2013-07-29 21:54:00,
2013-07-29 17:00:00,86.1,72.5,29.91,SE,142,4.0,14.0,64,0.00,,OVC055,0.00,266.80,VWS V14.01,2013-07-29 22:00:00,
2013-07-29 17:05:00,86.1,73.0,29.90,South,171,0.0,15.0,65,0.00,,BKN100,0.00,271.40,VWS V14.01,2013-07-29 22:05:00,
2013-07-29 17:10:00,86.1,73.4,29.90,South,174,0.0,15.0,66,0.00,,BKN100,0.00,238.05,VWS V14.01,2013-07-29 22:10:00,
2013-07-29 17:15:00,86.3,73.2,29.90,SSE,165,4.0,12.0,65,0.00,,BKN100,0.00,194.35,VWS V14.01,2013-07-29 22:15:00,
2013-07-29 17:20:00,85.9,72.8,29.90,South,178,2.0,15.0,65,0.00,,BKN100,0.00,171.35,VWS V14.01,2013-07-29 22:20:00,
2013-07-29 17:25:00,85.7,72.6,29.90,SSE,166,0.0,13.0,65,0.00,,BKN100,0.00,167.90,VWS V14.01,2013-07-29 22:25:00,
2013-07-29 17:30:00,85.7,73.0,29.90,South,182,9.0,12.0,66,0.00,,BKN100,0.00,162.15,VWS V14.01,2013-07-29 22:30:00,
2013-07-29 17:35:00,85.7,73.0,29.90,South,184,5.0,10.0,66,0.00,,BKN100,0.00,171.35,VWS V14.01,2013-07-29 22:35:00,
2013-07-29 17:40:00,85.7,73.0,29.90,South,177,5.0,11.0,66,0.00,,BKN100,0.00,149.50,VWS V14.01,2013-07-29 22:40:00,
2013-07-29 17:45:00,85.5,73.3,29.90,SE,146,0.0,12.0,67,0.00,,BKN100,0.00,146.05,VWS V14.01,2013-07-29 22:45:00,
2013-07-29 17:50:00,85.5,73.3,29.90,SE,142,0.0,13.0,67,0.00,,BKN100,0.00,141.45,VWS V14.01,2013-07-29 22:50:00,
2013-07-29 17:55:00,85.2,73.0,29.90,South,178,7.0,10.0,67,0.00,,BKN100,0.00,112.70,VWS V14.01,2013-07-29 22:55:00,
2013-07-29 18:00:00,85.2,72.6,29.90,SSE,166,0.0,16.0,66,0.00,,FEW040,0.00,98.90,VWS V14.01,2013-07-29 23:00:00,
2013-07-29 18:05:00,85.0,72.4,29.90,SE,138,5.0,13.0,66,0.00,,FEW040,0.00,109.25,VWS V14.01,2013-07-29 23:05:00,
2013-07-29 18:11:00,85.0,72.4,29.90,South,181,8.0,16.0,66,0.00,,FEW040,0.00,141.45,VWS V14.01,2013-07-29 23:11:00,
2013-07-29 18:16:00,85.0,71.9,29.89,South,184,0.0,14.0,65,0.00,,FEW040,0.00,154.10,VWS V14.01,2013-07-29 23:16:00,
2013-07-29 18:21:00,85.2,72.6,29.89,South,171,8.0,12.0,66,0.00,,FEW040,0.00,139.15,VWS V14.01,2013-07-29 23:21:00,
2013-07-29 18:26:00,85.2,72.6,29.89,SSE,161,7.0,16.0,66,0.00,,FEW040,0.00,155.25,VWS V14.01,2013-07-29 23:26:00,
2013-07-29 18:31:00,85.2,72.6,29.90,South,172,0.0,14.0,66,0.00,,FEW040,0.00,135.70,VWS V14.01,2013-07-29 23:31:00,
2013-07-29 18:36:00,85.2,72.6,29.90,South,180,4.0,15.0,66,0.00,,FEW040,0.00,119.60,VWS V14.01,2013-07-29 23:36:00,
2013-07-29 18:41:00,85.2,72.6,29.90,South,169,4.0,13.0,66,0.00,,FEW040,0.00,96.60,VWS V14.01,2013-07-29 23:41:00,
2013-07-29 18:46:00,85.2,72.6,29.90,South,171,0.0,9.0,66,0.00,,FEW040,0.00,77.05,VWS V14.01,2013-07-29 23:46:00,
2013-07-29 18:51:00,85.2,72.6,29.90,South,171,0.0,9.0,66,0.00,,FEW040,0.00,44.85,VWS V14.01,2013-07-29 23:51:00,
2013-07-29 18:56:00,85.2,72.6,29.90,South,186,11.0,13.0,66,0.00,,FEW040,0.00,42.55,VWS V14.01,2013-07-29 23:56:00,
2013-07-29 19:01:00,85.0,72.4,29.90,SSE,159,0.0,10.0,66,0.00,,CLR,0.00,48.30,VWS V14.01,2013-07-30 00:01:00,
2013-07-29 19:06:00,85.0,72.4,29.90,South,171,0.0,10.0,66,0.00,,CLR,0.00,54.05,VWS V14.01,2013-07-30 00:06:00,
2013-07-29 19:11:00,84.8,72.6,29.90,SSE,164,5.0,10.0,67,0.00,,CLR,0.00,52.90,VWS V14.01,2013-07-30 00:11:00,
2013-07-29 19:16:00,84.8,72.2,29.90,South,177,0.0,15.0,66,0.00,,CLR,0.00,46.00,VWS V14.01,2013-07-30 00:16:00,
2013-07-29 19:21:00,84.6,72.4,29.90,South,182,0.0,12.0,67,0.00,,CLR,0.00,40.25,VWS V14.01,2013-07-30 00:21:00,
2013-07-29 19:26:00,84.6,72.4,29.90,SE,144,4.0,12.0,67,0.00,,CLR,0.00,37.95,VWS V14.01,2013-07-30 00:26:00,
2013-07-29 19:31:00,84.4,72.2,29.88,SSE,163,0.0,5.0,67,0.00,,SCT110,0.00,34.50,VWS V14.01,2013-07-30 00:31:00,
2013-07-29 19:36:00,84.2,72.1,29.88,South,172,5.0,12.0,67,0.00,,SCT110,0.00,29.90,VWS V14.01,2013-07-30 00:36:00,
2013-07-29 19:41:00,84.2,72.1,29.88,SSE,159,0.0,0.0,67,0.00,,SCT110,0.00,26.45,VWS V14.01,2013-07-30 00:41:00,
2013-07-29 19:46:00,84.0,71.9,29.89,South,175,10.0,14.0,67,0.00,,SCT110,0.00,21.85,VWS V14.01,2013-07-30 00:46:00,
2013-07-29 19:51:00,84.0,72.3,29.89,South,175,0.0,11.0,68,0.00,,SCT110,0.00,20.70,VWS V14.01,2013-07-30 00:51:00,
2013-07-29 19:56:00,83.8,72.1,29.89,SSE,166,0.0,12.0,68,0.00,,SCT110,0.00,18.40,VWS V14.01,2013-07-30 00:56:00,
2013-07-29 20:01:00,83.8,72.1,29.90,SSE,166,0.0,9.0,68,0.00,,SCT110,0.00,12.65,VWS V14.01,2013-07-30 01:01:00,
2013-07-29 20:06:00,83.6,71.9,29.90,SSE,162,0.0,0.0,68,0.00,,SCT110,0.00,8.05,VWS V14.01,2013-07-30 01:06:00,
2013-07-29 20:11:00,83.6,71.9,29.90,SSE,167,0.0,0.0,68,0.00,,SCT110,0.00,8.05,VWS V14.01,2013-07-30 01:11:00,
2013-07-29 20:16:00,83.4,72.2,29.90,SSE,163,3.0,6.0,69,0.00,,SCT110,0.00,0.00,VWS V14.01,2013-07-30 01:16:00,
2013-07-29 20:22:00,83.4,72.2,29.90,SSE,152,5.0,10.0,69,0.00,,SCT110,0.00,0.00,VWS V14.01,2013-07-30 01:22:00,
2013-07-29 20:27:00,83.2,72.0,29.90,South,170,5.0,10.0,69,0.00,,SCT110,0.00,0.00,VWS V14.01,2013-07-30 01:27:00,
2013-07-29 20:32:00,83.2,72.0,29.90,South,172,0.0,6.0,69,0.00,,SCT110,0.00,0.00,VWS V14.01,2013-07-30 01:32:00,
2013-07-29 20:37:00,83.0,72.2,29.90,SSE,162,0.0,0.0,70,0.00,,SCT110,0.00,0.00,VWS V14.01,2013-07-30 01:37:00,
2013-07-29 20:42:00,83.0,72.2,29.90,SSE,167,4.0,9.0,70,0.00,,SCT110,0.00,0.00,VWS V14.01,2013-07-30 01:42:00,
2013-07-29 20:47:00,83.0,72.6,29.90,SSE,166,0.0,11.0,71,0.00,,SCT110,0.00,0.00,VWS V14.01,2013-07-30 01:47:00,
2013-07-29 20:52:00,82.8,72.4,29.90,South,182,1.0,11.0,71,0.00,,SCT110,0.00,0.00,VWS V14.01,2013-07-30 01:52:00,
2013-07-29 20:57:00,82.8,72.4,29.90,South,178,0.0,0.0,71,0.00,,SCT110,0.00,0.00,VWS V14.01,2013-07-30 01:57:00,
2013-07-29 21:02:00,82.8,72.4,29.91,SSE,166,0.0,0.0,71,0.00,,CLR,0.00,0.00,VWS V14.01,2013-07-30 02:02:00,
2013-07-29 21:07:00,82.8,72.4,29.91,South,178,7.0,11.0,71,0.00,,CLR,0.00,0.00,VWS V14.01,2013-07-30 02:07:00,
2013-07-29 21:12:00,82.8,72.0,29.91,SSE,162,0.0,10.0,70,0.00,,CLR,0.00,0.00,VWS V14.01,2013-07-30 02:12:00,
2013-07-29 21:17:00,82.8,72.0,29.91,South,169,0.0,0.0,70,0.00,,CLR,0.00,0.00,VWS V14.01,2013-07-30 02:17:00,
2013-07-29 21:22:00,82.8,72.0,29.91,South,169,0.0,15.0,70,0.00,,CLR,0.00,0.00,VWS V14.01,2013-07-30 02:22:00,
2013-07-29 21:27:00,82.8,72.0,29.91,South,172,0.0,10.0,70,0.00,,CLR,0.00,0.00,VWS V14.01,2013-07-30 02:27:00,
2013-07-29 21:32:00,82.8,72.0,29.91,SSE,168,0.0,12.0,70,0.00,,CLR,0.00,0.00,VWS V14.01,2013-07-30 02:32:00,
2013-07-29 21:38:00,82.6,71.8,29.91,SSE,161,0.0,9.0,70,0.00,,CLR,0.00,0.00,VWS V14.01,2013-07-30 02:38:00,
2013-07-29 21:43:00,82.6,71.8,29.91,South,176,0.0,17.0,70,0.00,,CLR,0.00,0.00,VWS V14.01,2013-07-30 02:43:00,
2013-07-29 21:48:00,82.6,71.8,29.90,SSE,164,0.0,6.0,70,0.00,,CLR,0.00,0.00,VWS V14.01,2013-07-30 02:48:00,
2013-07-29 21:53:00,82.6,72.2,29.90,SE,130,0.0,11.0,71,0.00,,CLR,0.00,0.00,VWS V14.01,2013-07-30 02:53:00,
2013-07-29 21:58:00,82.5,72.2,29.90,SSE,167,8.0,9.0,71,0.00,,CLR,0.00,0.00,VWS V14.01,2013-07-30 02:58:00,
2013-07-29 22:03:00,82.5,72.2,29.90,South,171,0.0,11.0,71,0.00,,BKN110,0.00,0.00,VWS V14.01,2013-07-30 03:03:00,
2013-07-29 22:08:00,82.3,72.0,29.90,South,182,3.0,14.0,71,0.00,,BKN110,0.00,0.00,VWS V14.01,2013-07-30 03:08:00,
2013-07-29 22:13:00,82.3,72.4,29.90,South,177,14.0,14.0,72,0.00,,BKN110,0.00,0.00,VWS V14.01,2013-07-30 03:13:00,
2013-07-29 22:18:00,82.1,72.2,29.90,SSE,165,0.0,15.0,72,0.00,,BKN110,0.00,0.00,VWS V14.01,2013-07-30 03:18:00,
2013-07-29 22:24:00,82.1,72.6,29.90,South,169,0.0,9.0,73,0.00,,BKN110,0.00,0.00,VWS V14.01,2013-07-30 03:24:00,
2013-07-29 22:29:00,81.9,72.4,29.90,South,179,0.0,9.0,73,0.00,,BKN110,0.00,0.00,VWS V14.01,2013-07-30 03:29:00,
2013-07-29 22:34:00,81.9,72.4,29.91,South,176,3.0,11.0,73,0.00,,BKN110,0.00,0.00,VWS V14.01,2013-07-30 03:34:00,
2013-07-29 22:39:00,81.7,72.2,29.91,South,182,0.0,11.0,73,0.00,,BKN110,0.00,0.00,VWS V14.01,2013-07-30 03:39:00,
2013-07-29 22:44:00,81.7,72.6,29.91,SE,127,0.0,10.0,74,0.00,,BKN110,0.00,0.00,VWS V14.01,2013-07-30 03:44:00,
2013-07-29 22:49:00,81.5,72.8,29.91,South,177,0.0,17.0,75,0.00,,BKN110,0.00,0.00,VWS V14.01,2013-07-30 03:49:00,
2013-07-29 22:55:00,81.3,73.0,29.91,South,182,9.0,14.0,76,0.00,,BKN110,0.00,0.00,VWS V14.01,2013-07-30 03:55:00,
2013-07-29 23:00:00,81.1,72.8,29.91,SSE,166,9.0,17.0,76,0.00,,SCT100,0.00,0.00,VWS V14.01,2013-07-30 04:00:00,
2013-07-29 23:01:00,81.1,72.8,29.90,SSE,166,0.0,17.0,76,0.00,,SCT100,0.00,0.00,VWS V14.01,2013-07-30 04:01:00,
2013-07-29 23:06:00,81.1,73.2,29.90,South,179,10.0,11.0,77,0.00,,SCT100,0.00,0.00,VWS V14.01,2013-07-30 04:06:00,
2013-07-29 23:11:00,80.9,73.4,29.90,South,171,0.0,0.0,78,0.01,,SCT100,0.01,0.00,VWS V14.01,2013-07-30 04:11:00,
2013-07-29 23:16:00,80.5,73.4,29.90,South,173,0.0,0.0,79,0.01,,SCT100,0.01,0.00,VWS V14.01,2013-07-30 04:16:00,
2013-07-29 23:21:00,80.3,73.2,29.90,South,178,10.0,13.0,79,0.01,,SCT100,0.01,0.00,VWS V14.01,2013-07-30 04:21:00,
2013-07-29 23:26:00,80.1,73.4,29.90,South,169,0.0,7.0,80,0.01,,SCT100,0.01,0.00,VWS V14.01,2013-07-30 04:26:00,
2013-07-29 23:31:00,79.9,73.2,29.90,South,169,0.0,0.0,80,0.01,,SCT100,0.01,0.00,VWS V14.01,2013-07-30 04:31:00,
2013-07-29 23:37:00,79.7,73.0,29.90,SSE,165,2.0,7.0,80,0.01,,SCT100,0.01,0.00,VWS V14.01,2013-07-30 04:37:00,
2013-07-29 23:42:00,79.7,73.4,29.90,SSE,166,0.0,0.0,81,0.01,,SCT100,0.01,0.00,VWS V14.01,2013-07-30 04:42:00,
2013-07-29 23:47:00,79.7,73.4,29.90,SSE,167,10.0,10.0,81,0.01,,SCT100,0.01,0.00,VWS V14.01,2013-07-30 04:47:00,
2013-07-29 23:52:00,79.6,73.3,29.90,South,185,0.0,6.0,81,0.01,,SCT100,0.01,0.00,VWS V14.01,2013-07-30 04:52:00,
2013-07-29 23:57:00,79.6,73.3,29.90,SSW,193,0.0,6.0,81,0.01,,SCT100,0.01,0.00,VWS V14.01,2013-07-30 04:57:00,